Regional Weather Roundup
Issued by NWS

Home | Current Version | Previous Version | Graphics & Text | Print | Product List | Glossary On
Versions: 1 2 3 4 5 6 7 8 9 10 11 12 13 14 15 16 17 18 19 20 21 22 23 24 25 26 27 28 29
000
ASUS45 KBOU 260807
RWRCO

WEATHER ROUNDUP FOR COLORADO
NATIONAL WEATHER SERVICE DENVER/BOULDER CO
200 AM MDT WED APR 26 2017

NOTE: "FAIR" INDICATES FEW OR NO CLOUDS BELOW 12000 FEET WITH NO
SIGNIFICANT WEATHER AND/OR OBSTRUCTIONS TO VISIBILITY.

COZ001>005-013-030-031-260900-
...NORTHWEST COLORADO...

CITY           SKY/WX    TMP DP  RH WIND       PRES   REMARKS
CRAIG          FAIR      30  25  81 SW5       29.92R WCI  25
HAYDEN         NOT AVBL
MEEKER         MOCLDY    35  33  92 CALM      29.92R
MOUNT WERNER   NOT AVBL
STEAMBOAT SPGS CLOUDY    31  30  96 S6        29.88S WCI  25
WALDEN           N/A     27  23  86 NW3       29.88S
$$

COZ006>008-011-260900-
...WEST CENTRAL VALLEYS...

CITY           SKY/WX    TMP DP  RH WIND       PRES   REMARKS
GRAND JUNCTION MOCLDY    39  35  86 N7        29.90R
MONTROSE       MOCLDY    38  33  82 E3        29.93S
EAGLE          MOCLDY    31  30  96 SE3       29.91R
RIFLE          FAIR      38  33  82 W6        29.90S
DELTA          FAIR      39  35  84 N6        29.91R
NUCLA          CLOUDY    36  32  87 E7        29.96R
$$

COZ017>023-064>068-260900-
...SOUTHWEST COLORADO...

CITY           SKY/WX    TMP DP  RH WIND       PRES   REMARKS
DURANGO        FAIR      39  17  41 NW16      29.82R
CORTEZ         FAIR      32  27  81 NE6       29.90R WCI  26
PAGOSA SPRINGS FAIR      30  23  73 CALM      29.85S
TELLURIDE      MOCLDY    29  25  87 SW7       29.94F WCI  22
WOLF CREEK PAS FAIR      16  12  86 NW9G17    29.92S WCI   4
$$

COZ009-010-012-014-032>034-037-058>063-260900-
...CENTRAL COLORADO...

CITY           SKY/WX    TMP DP  RH WIND       PRES   REMARKS
ASPEN          CLOUDY    32  29  88 NE5       29.88S WCI  27
BUENA VISTA    FAIR      33  20  60 NW9       29.82S WCI  25
COPPER MTN     LGT SNOW  21  16  79 MISG      29.87S
BERTHOUD PASS  CLOUDY    12   1  62 N29G49    29.79R WCI  -9
COTTONWOOD PAS FAIR      32  18  55 W13G21    29.83F WCI  22
GUNNISON       LGT RAIN  33  27  78 W6        29.89R WCI  28
KREMMLING      CLOUDY    37  30  75 N5        29.87S
LEADVILLE      LGT SNOW  24  18  77 N10       29.84F VSB 1   WCI  14
MONARCH PASS   CLOUDY    19  18  93 W22       29.97F WCI   3
SALIDA         FAIR      35  26  72 NW5       29.89S WCI  30
SUNLIGHT       FOG      N/A N/A N/A CALM      29.96S VSB 3/4
WILKERSON PASS FAIR      19  18  93 NW10      29.85S WCI   8
$$

COZ069>075-260900-
...SAN LUIS VALLEY/SANGRE DE CRISTO MOUNTAINS...

CITY           SKY/WX    TMP DP  RH WIND       PRES   REMARKS
ALAMOSA        FAIR      33  29  85 N5        29.81S WCI  29
LA VETA PASS   SNOW      27  23  86 W3        29.94R VSB 1/2
SAGUACHE       FAIR      34  21  60 NW20G25   29.83S WCI  22
$$

COZ035-036-038>040-260900-
...NORTHERN COLORADO FRONT RANGE...

CITY           SKY/WX    TMP DP  RH WIND       PRES   REMARKS
DENVER INTL AP CLOUDY    31  25  78 N3        29.84F
DMNS CITY PARK   N/A     32  26  78 MISG      29.84F
AURORA         NOT AVBL
FRONT RANGE AP CLOUDY    32  28  86 N5        29.85F WCI  27
ERIE MUNI ARPT CLOUDY    33  27  80 E3        29.84F
BOULDER MUN AP CLOUDY    34  28  80 CALM      29.83F
CENTENNIAL     CLOUDY    30  28  92 NE5       29.84S WCI  25
BROOMFIELD     CLOUDY    32  28  86 SE6       29.84F WCI  26
FORT COLLINS   FAIR      29  25  85 E5        29.84F WCI  24
LONGMONT       CLOUDY    35  29  79 S5        29.86F WCI  31
$$

COZ041-046-047-076>085-087-088-260900-
...PIKES PEAK/PALMER DIVIDE AND SOUTHERN FOOTHILLS...

CITY           SKY/WX    TMP DP  RH WIND       PRES   REMARKS
COLO. SPRINGS  FAIR      34  27  75 N17       29.79F WCI  23
A. F. ACADEMY  FAIR      31  27  85 N15G22    29.79F WCI  20
SCHRIEVER AFB  FAIR      31  26  83 N14G22    29.80S WCI  20
ELLICOTT       NOT AVBL
FALCON         FAIR      28  25  90 N12       29.81S WCI  18
FORT CARSON    NOT AVBL
LIMON          MOCLDY    31  30  96 NW20G28   29.79S WCI  19
MONUMENT HILL  CLOUDY    25  25 100 N10       29.83S WCI  15
TRINIDAD       LGT SNOW  33  31  92 N8        29.81R FOG     WCI  26
$$

COZ042>045-048>051-090-091-260900-
...NORTHEAST COLORADO...

CITY           SKY/WX    TMP DP  RH WIND       PRES   REMARKS
GREELEY ARPT   FAIR      30  26  85 W3        29.85F
AKRON          FAIR      29  27  92 NW13      29.79F WCI  19
BURLINGTON     NOT AVBL
WRAY           NOT AVBL
STERLING       FAIR      32  30  93 N7        29.81F WCI  26
HOLYOKE        FAIR      34  30  86 NW15      29.80F WCI  24
FORT MORGAN    FAIR      30  27  86 NW7       29.82S WCI  23
$$

COZ086-089-092>099-260900-
...SOUTHEAST COLORADO...

CITY           SKY/WX    TMP DP  RH WIND       PRES   REMARKS
PUEBLO         CLOUDY    41  33  73 N8        29.81R
LA JUNTA       CLOUDY    43  40  89 N9        29.78R
LAMAR          CLOUDY    42  38  85 N10G22    29.74R
SPRINGFIELD      N/A     42  41  96 N18       29.70R
$$




USA.gov is the U.S. government's official web portal to all federal, state and local government web resources and services.